STARLINK-31762 (59614 NORAD) Tracking and Keplerian Element Data

This shows tracking and keplerian element data for the satellite.

Feedback or suggestion? Click here.




ElementValue
Catalog59614
NameSTARLINK-31762
Epoch Orbit618
Epoch Day159.5165196
Epoch Year2024
RAAN91.5911
Inclination43.003
Eccentricity0.0002633
Argument of Perigee262.5032
Mean Anonmoly97.5525
Mean Motion15.4071141
Decay Rate5.282E-05
L11 59614U 24080P 24159.51651960 .00005282 00000+0 13358-3 0 9992
L22 59614 43.0030 91.5911 0002633 262.5032 97.5525 15.40711410 6189



Live tracking and technical data element details for STARLINK-31762 (NORAD 59614). STARLINK-31762 can be tracked NOW for your location showing map with azimuth and elevation plus other details from your city location.







IsCatalogInMostPopularTable: catalog: 59614, numindb: 11
Update: records affected: 1



GetName: 59614 STARLINK-31762

Hit Count: updated at: Fri, 14 Jun 2024 19:45:08 GMT